Location: Cluj-Napoca
(46.7712°N, 23.6236°E)
Time: 06:40:33
(UTC+02:00)

ISS - Pass Details

Date: 30 January 2021
Orbit: 417 x 422 km, 51.6° (Epoch: 08 March)

Event Time Altitude Azimuth Distance (km) Brightness Sun altitude
Rises 18:16:05 0° 287° (WNW) 2,374 1.1 -8.9°
Reaches altitude 10° 18:18:18 10° 297° (WNW) 1,509 -0.2 -9.2°
Maximum altitude 18:21:27 35° 5° (N) 702 -2.8 -9.7°
Enters shadow 18:23:52 15° 67° (ENE) 1,240 -2.0 -10.1°
